Time,TemperatureF,DewpointF,PressureIn,WindDirection,WindDirectionDegrees,WindSpeedMPH,WindSpeedGustMPH,Humidity,HourlyPrecipIn,Conditions,Clouds,dailyrainin,SoftwareType,DateUTC
2013-04-05 00:01:00,67.8,60.6,29.88,North,-999,0.0,0.0,78,0.00,,,-99.99,FreeWX 2.05,2013-04-05 04:01:00,
2013-04-05 00:11:00,67.6,60.4,29.88,North,-999,0.0,3.6,78,0.00,,,-99.99,FreeWX 2.05,2013-04-05 04:11:00,
2013-04-05 00:21:00,67.5,60.8,29.88,North,-999,0.0,3.6,79,0.00,,,-99.99,FreeWX 2.05,2013-04-05 04:21:00,
2013-04-05 00:31:00,67.5,60.8,29.91,North,-999,0.0,3.6,79,0.00,,,-99.99,FreeWX 2.05,2013-04-05 04:31:00,
2013-04-05 00:41:00,67.6,61.2,29.91,North,-999,0.0,3.6,80,0.00,,,-99.99,FreeWX 2.05,2013-04-05 04:41:00,
2013-04-05 00:51:00,67.6,61.2,29.91,NE,49,2.0,4.9,80,0.00,,,-99.99,FreeWX 2.05,2013-04-05 04:51:00,
2013-04-05 01:01:00,67.6,61.2,29.91,NE,51,4.0,6.3,80,0.00,,,-99.99,FreeWX 2.05,2013-04-05 05:01:00,
2013-04-05 01:11:00,67.8,61.3,29.91,NE,55,4.0,6.9,80,0.00,,,-99.99,FreeWX 2.05,2013-04-05 05:11:00,
2013-04-05 01:21:00,67.6,61.2,29.91,ENE,57,2.0,6.7,80,0.00,,,-99.99,FreeWX 2.05,2013-04-05 05:21:00,
2013-04-05 01:41:00,67.5,61.0,29.91,NE,53,2.0,4.5,80,0.00,,,-99.99,FreeWX 2.05,2013-04-05 05:41:00,
2013-04-05 01:51:00,67.5,61.3,29.91,NE,48,1.0,5.4,81,0.00,,,-99.99,FreeWX 2.05,2013-04-05 05:51:00,
2013-04-05 02:01:00,67.5,61.3,29.91,North,-999,0.0,4.5,81,0.00,,,-99.99,FreeWX 2.05,2013-04-05 06:01:00,
2013-04-05 02:11:00,67.3,61.2,29.91,North,-999,0.0,0.0,81,0.00,,,-99.99,FreeWX 2.05,2013-04-05 06:11:00,
2013-04-05 02:32:00,67.1,61.0,29.88,North,-999,0.0,0.0,81,0.00,,,-99.99,FreeWX 2.05,2013-04-05 06:32:00,
2013-04-05 02:42:00,67.1,61.0,29.88,North,-999,0.0,0.0,81,0.00,,,-99.99,FreeWX 2.05,2013-04-05 06:42:00,
2013-04-05 02:52:00,67.1,61.3,29.88,North,-999,0.0,0.0,82,0.00,,,-99.99,FreeWX 2.05,2013-04-05 06:52:00,
2013-04-05 03:02:00,66.9,61.2,29.88,North,-999,0.0,0.0,82,0.00,,,-99.99,FreeWX 2.05,2013-04-05 07:02:00,
2013-04-05 03:12:00,67.1,61.3,29.88,North,-999,0.0,3.1,82,0.00,,,-99.99,FreeWX 2.05,2013-04-05 07:12:00,
2013-04-05 03:22:00,66.9,61.2,29.88,North,-999,0.0,3.6,82,0.00,,,-99.99,FreeWX 2.05,2013-04-05 07:22:00,
2013-04-05 03:32:00,66.9,61.2,29.88,NE,56,2.0,4.5,82,0.00,,,-99.99,FreeWX 2.05,2013-04-05 07:32:00,
2013-04-05 03:42:00,66.9,61.2,29.88,NE,51,2.0,4.0,82,0.00,,,-99.99,FreeWX 2.05,2013-04-05 07:42:00,
2013-04-05 03:52:00,66.9,61.2,29.88,NE,49,2.0,5.4,82,0.00,,,-99.99,FreeWX 2.05,2013-04-05 07:52:00,
2013-04-05 04:02:00,66.9,61.2,29.88,NE,55,2.0,5.8,82,0.00,,,-99.99,FreeWX 2.05,2013-04-05 08:02:00,
2013-04-05 04:12:00,66.9,61.2,29.88,NE,52,3.0,6.7,82,0.00,,,-99.99,FreeWX 2.05,2013-04-05 08:12:00,
2013-04-05 04:22:00,66.9,61.5,29.88,NE,46,3.0,6.3,83,0.00,,,-99.99,FreeWX 2.05,2013-04-05 08:22:00,
2013-04-05 04:32:00,66.9,61.5,29.85,ENE,60,2.0,4.5,83,0.00,,,-99.99,FreeWX 2.05,2013-04-05 08:32:00,
2013-04-05 04:42:00,66.9,61.5,29.85,NE,53,2.0,4.5,83,0.00,,,-99.99,FreeWX 2.05,2013-04-05 08:42:00,
2013-04-05 04:52:00,66.9,61.5,29.85,NE,50,2.0,4.9,83,0.00,,,-99.99,FreeWX 2.05,2013-04-05 08:52:00,
2013-04-05 05:02:00,66.9,61.5,29.85,NE,52,1.0,4.5,83,0.00,,,-99.99,FreeWX 2.05,2013-04-05 09:02:00,
2013-04-05 05:12:00,66.9,61.5,29.85,North,-999,0.0,4.0,83,0.00,,,-99.99,FreeWX 2.05,2013-04-05 09:12:00,
2013-04-05 05:22:00,66.9,61.5,29.85,NE,52,1.0,4.0,83,0.00,,,-99.99,FreeWX 2.05,2013-04-05 09:22:00,
2013-04-05 05:32:00,66.9,61.5,29.82,NE,42,2.0,4.9,83,0.00,,,-99.99,FreeWX 2.05,2013-04-05 09:32:00,
2013-04-05 05:42:00,66.9,61.5,29.82,NE,55,2.0,4.5,83,0.00,,,-99.99,FreeWX 2.05,2013-04-05 09:42:00,
2013-04-05 05:52:00,66.7,61.3,29.82,NE,50,2.0,6.3,83,0.00,,,-99.99,FreeWX 2.05,2013-04-05 09:52:00,
2013-04-05 06:02:00,66.7,61.7,29.85,North,-999,0.0,4.5,84,0.00,,,-99.99,FreeWX 2.05,2013-04-05 10:02:00,
2013-04-05 06:12:00,66.7,61.7,29.85,NE,47,1.0,4.9,84,0.00,,,-99.99,FreeWX 2.05,2013-04-05 10:12:00,
2013-04-05 06:22:00,66.7,61.7,29.85,NE,44,1.0,4.5,84,0.00,,,-99.99,FreeWX 2.05,2013-04-05 10:22:00,
2013-04-05 06:32:00,66.9,61.9,29.85,NE,56,2.0,5.4,84,0.00,,,-99.99,FreeWX 2.05,2013-04-05 10:32:00,
2013-04-05 06:42:00,66.9,61.9,29.85,NE,49,3.0,5.8,84,0.00,,,-99.99,FreeWX 2.05,2013-04-05 10:42:00,
2013-04-05 06:52:00,66.9,61.9,29.85,NE,49,2.0,5.8,84,0.00,,,-99.99,FreeWX 2.05,2013-04-05 10:52:00,
2013-04-05 07:02:00,66.9,61.9,29.88,NE,48,3.0,5.8,84,0.00,,,-99.99,FreeWX 2.05,2013-04-05 11:02:00,
2013-04-05 07:12:00,66.9,61.9,29.88,NE,52,3.0,6.9,84,0.00,,,-99.99,FreeWX 2.05,2013-04-05 11:12:00,
2013-04-05 07:22:00,67.1,62.1,29.88,ENE,57,2.0,5.4,84,0.00,,,-99.99,FreeWX 2.05,2013-04-05 11:22:00,
2013-04-05 07:32:00,66.9,61.9,29.88,NE,44,2.0,4.5,84,0.00,,,-99.99,FreeWX 2.05,2013-04-05 11:32:00,
2013-04-05 07:42:00,67.1,62.1,29.88,NE,51,3.0,6.3,84,0.00,,,-99.99,FreeWX 2.05,2013-04-05 11:42:00,
2013-04-05 07:52:00,67.3,62.2,29.88,ENE,61,3.0,6.9,84,0.00,,,-99.99,FreeWX 2.05,2013-04-05 11:52:00,
2013-04-05 08:02:00,67.3,62.2,29.88,ENE,59,2.0,5.8,84,0.00,,,-99.99,FreeWX 2.05,2013-04-05 12:02:00,
2013-04-05 08:12:00,67.5,62.4,29.88,NE,53,4.0,7.8,84,0.00,,,-99.99,FreeWX 2.05,2013-04-05 12:12:00,
2013-04-05 08:22:00,67.5,62.4,29.91,ENE,58,4.0,8.3,84,0.00,,,-99.99,FreeWX 2.05,2013-04-05 12:22:00,
2013-04-05 08:32:00,67.5,62.4,29.91,NE,47,3.0,6.7,84,0.00,,,-99.99,FreeWX 2.05,2013-04-05 12:32:00,
2013-04-05 08:42:00,67.5,62.4,29.91,NE,41,2.0,5.4,84,0.00,,,-99.99,FreeWX 2.05,2013-04-05 12:42:00,
2013-04-05 08:52:00,67.6,62.6,29.91,North,-999,0.0,4.0,84,0.00,,,-99.99,FreeWX 2.05,2013-04-05 12:52:00,
2013-04-05 09:02:00,68.0,63.3,29.91,ENE,73,2.0,4.9,85,0.00,,,-99.99,FreeWX 2.05,2013-04-05 13:02:00,
2013-04-05 09:12:00,68.2,63.5,29.91,ENE,57,1.0,4.5,85,0.00,,,-99.99,FreeWX 2.05,2013-04-05 13:12:00,
2013-04-05 09:22:00,68.2,63.5,29.91,NE,43,2.0,4.5,85,0.00,,,-99.99,FreeWX 2.05,2013-04-05 13:22:00,
2013-04-05 09:32:00,68.2,63.5,29.91,NE,35,1.0,4.0,85,0.00,,,-99.99,FreeWX 2.05,2013-04-05 13:32:00,
2013-04-05 09:42:00,68.4,63.7,29.91,ENE,67,2.0,6.7,85,0.00,,,-99.99,FreeWX 2.05,2013-04-05 13:42:00,
2013-04-05 09:52:00,67.5,62.1,29.91,SE,136,4.0,9.2,83,0.00,,,-99.99,FreeWX 2.05,2013-04-05 13:52:00,
2013-04-05 10:02:00,66.4,60.8,29.91,SSE,163,3.0,9.6,82,0.00,,,-99.99,FreeWX 2.05,2013-04-05 14:02:00,
2013-04-05 10:12:00,66.0,61.0,29.91,SSW,200,2.0,5.4,84,0.00,,,-99.99,FreeWX 2.05,2013-04-05 14:12:00,
2013-04-05 10:22:00,66.2,61.5,29.91,SSW,193,2.0,4.9,85,0.00,,,-99.99,FreeWX 2.05,2013-04-05 14:22:00,
2013-04-05 10:43:00,66.6,61.9,29.91,South,189,2.0,6.9,85,0.00,,,-99.99,FreeWX 2.05,2013-04-05 14:43:00,
2013-04-05 10:53:00,66.2,61.9,29.94,South,191,3.0,8.3,86,0.00,,,-99.99,FreeWX 2.05,2013-04-05 14:53:00,
2013-04-05 11:03:00,66.2,61.9,29.94,SSW,192,3.0,9.6,86,0.00,,,-99.99,FreeWX 2.05,2013-04-05 15:03:00,
2013-04-05 11:13:00,66.2,61.9,29.94,South,180,1.0,6.3,86,0.00,,,-99.99,FreeWX 2.05,2013-04-05 15:13:00,
2013-04-05 11:23:00,66.6,62.2,29.94,SSE,150,2.0,6.9,86,0.00,,,-99.99,FreeWX 2.05,2013-04-05 15:23:00,
2013-04-05 11:33:00,66.7,62.4,29.94,South,173,2.0,7.4,86,0.00,,,-99.99,FreeWX 2.05,2013-04-05 15:33:00,
2013-04-05 11:43:00,66.7,61.7,29.94,SSW,193,3.0,8.7,84,0.00,,,-99.99,FreeWX 2.05,2013-04-05 15:43:00,
2013-04-05 11:53:00,66.9,61.2,29.94,SSW,192,4.0,10.1,82,0.00,,,-99.99,FreeWX 2.05,2013-04-05 15:53:00,
2013-04-05 12:03:00,67.5,61.3,29.94,SSE,161,4.0,11.6,81,0.00,,,-99.99,FreeWX 2.05,2013-04-05 16:03:00,
2013-04-05 12:13:00,67.5,60.8,29.94,SSE,157,4.0,8.7,79,0.00,,,-99.99,FreeWX 2.05,2013-04-05 16:13:00,
2013-04-05 12:23:00,67.8,60.6,29.94,SE,128,4.0,11.2,78,0.00,,,-99.99,FreeWX 2.05,2013-04-05 16:23:00,
2013-04-05 12:33:00,67.5,59.2,29.94,SSE,167,4.0,10.5,75,0.00,,,-99.99,FreeWX 2.05,2013-04-05 16:33:00,
2013-04-05 12:43:00,68.0,59.0,29.94,South,182,4.0,11.0,73,0.00,,,-99.99,FreeWX 2.05,2013-04-05 16:43:00,
2013-04-05 12:53:00,68.0,56.1,29.94,SSW,202,4.0,8.7,66,0.00,,,-99.99,FreeWX 2.05,2013-04-05 16:53:00,
2013-04-05 13:03:00,68.7,55.2,29.94,South,188,4.0,10.5,62,0.00,,,-99.99,FreeWX 2.05,2013-04-05 17:03:00,
2013-04-05 13:13:00,70.0,55.9,29.94,SSE,151,3.0,10.1,61,0.00,,,-99.99,FreeWX 2.05,2013-04-05 17:13:00,
2013-04-05 13:23:00,70.3,53.4,29.91,SSE,159,4.0,10.5,55,0.00,,,-99.99,FreeWX 2.05,2013-04-05 17:23:00,
2013-04-05 13:33:00,70.3,51.8,29.91,SE,131,4.0,15.2,52,0.00,,,-99.99,FreeWX 2.05,2013-04-05 17:33:00,
2013-04-05 13:43:00,70.7,51.1,29.91,SE,129,4.0,10.1,50,0.00,,,-99.99,FreeWX 2.05,2013-04-05 17:43:00,
2013-04-05 13:53:00,70.3,46.8,29.91,SSW,196,4.0,9.6,43,0.00,,,-99.99,FreeWX 2.05,2013-04-05 17:53:00,
2013-04-05 14:03:00,70.9,45.3,29.91,SSE,152,4.0,9.6,40,0.00,,,-99.99,FreeWX 2.05,2013-04-05 18:03:00,
2013-04-05 14:13:00,71.1,44.8,29.91,SSE,158,4.0,13.0,39,0.00,,,-99.99,FreeWX 2.05,2013-04-05 18:13:00,
2013-04-05 14:23:00,71.2,44.2,29.91,SE,141,4.0,9.6,38,0.00,,,-99.99,FreeWX 2.05,2013-04-05 18:23:00,
2013-04-05 14:33:00,71.6,44.6,29.91,SSE,147,3.0,8.7,38,0.00,,,-99.99,FreeWX 2.05,2013-04-05 18:33:00,
2013-04-05 14:43:00,72.0,43.5,29.91,SE,134,5.0,10.5,36,0.00,,,-99.99,FreeWX 2.05,2013-04-05 18:43:00,
2013-04-05 14:53:00,71.8,43.3,29.91,SE,143,4.0,11.2,36,0.00,,,-99.99,FreeWX 2.05,2013-04-05 18:53:00,
2013-04-05 15:03:00,71.8,43.3,29.91,SSE,147,4.0,10.1,36,0.00,,,-99.99,FreeWX 2.05,2013-04-05 19:03:00,
2013-04-05 15:13:00,71.6,43.9,29.91,SE,125,4.0,10.1,37,0.00,,,-99.99,FreeWX 2.05,2013-04-05 19:13:00,
2013-04-05 15:23:00,71.2,43.0,29.91,SSE,165,4.0,11.0,36,0.00,,,-99.99,FreeWX 2.05,2013-04-05 19:23:00,
2013-04-05 15:33:00,71.8,44.1,29.91,ESE,114,4.0,11.0,37,0.00,,,-99.99,FreeWX 2.05,2013-04-05 19:33:00,
2013-04-05 15:43:00,70.9,43.3,29.91,SSE,152,4.0,11.0,37,0.00,,,-99.99,FreeWX 2.05,2013-04-05 19:43:00,
2013-04-05 15:53:00,71.2,44.2,29.91,SE,131,4.0,9.6,38,0.00,,,-99.99,FreeWX 2.05,2013-04-05 19:53:00,
2013-04-05 16:03:00,71.1,43.5,29.88,South,178,4.0,9.2,37,0.00,,,-99.99,FreeWX 2.05,2013-04-05 20:03:00,
2013-04-05 16:13:00,70.2,42.6,29.88,SSE,162,4.0,9.6,37,0.00,,,-99.99,FreeWX 2.05,2013-04-05 20:13:00,
2013-04-05 16:23:00,69.1,42.4,29.88,SSW,195,4.0,10.1,38,0.00,,,-99.99,FreeWX 2.05,2013-04-05 20:23:00,
2013-04-05 16:33:00,69.4,44.1,29.88,South,173,4.0,10.5,40,0.00,,,-99.99,FreeWX 2.05,2013-04-05 20:33:00,
2013-04-05 16:43:00,70.9,45.3,29.88,ESE,123,4.0,9.2,40,0.00,,,-99.99,FreeWX 2.05,2013-04-05 20:43:00,
2013-04-05 16:53:00,71.1,44.2,29.88,SSE,155,4.0,10.5,38,0.00,,,-99.99,FreeWX 2.05,2013-04-05 20:53:00,
2013-04-05 17:03:00,70.0,43.2,29.88,SE,135,5.0,12.1,38,0.00,,,-99.99,FreeWX 2.05,2013-04-05 21:03:00,
2013-04-05 17:13:00,69.8,45.7,29.88,South,181,4.0,9.2,42,0.00,,,-99.99,FreeWX 2.05,2013-04-05 21:13:00,
2013-04-05 17:23:00,69.4,45.3,29.88,SSE,165,4.0,11.2,42,0.00,,,-99.99,FreeWX 2.05,2013-04-05 21:23:00,
2013-04-05 17:44:00,68.4,45.0,29.88,SSE,164,5.0,13.4,43,0.00,,,-99.99,FreeWX 2.05,2013-04-05 21:44:00,
2013-04-05 18:04:00,67.6,43.7,29.88,South,171,4.0,8.7,42,0.00,,,-99.99,FreeWX 2.05,2013-04-05 22:04:00,
2013-04-05 18:14:00,67.1,44.4,29.91,SSW,203,4.0,9.2,44,0.00,,,-99.99,FreeWX 2.05,2013-04-05 22:14:00,
2013-04-05 18:24:00,66.7,44.8,29.91,South,170,4.0,12.1,45,0.00,,,-99.99,FreeWX 2.05,2013-04-05 22:24:00,
2013-04-05 18:34:00,66.4,43.2,29.91,South,184,4.0,11.6,43,0.00,,,-99.99,FreeWX 2.05,2013-04-05 22:34:00,
2013-04-05 18:44:00,66.0,42.8,29.91,SSE,157,4.0,12.5,43,0.00,,,-99.99,FreeWX 2.05,2013-04-05 22:44:00,
2013-04-05 18:54:00,65.1,42.6,29.91,SSE,166,4.0,11.2,44,0.00,,,-99.99,FreeWX 2.05,2013-04-05 22:54:00,
2013-04-05 19:04:00,65.1,43.2,29.91,SE,143,5.0,11.6,45,0.00,,,-99.99,FreeWX 2.05,2013-04-05 23:04:00,
2013-04-05 19:14:00,64.4,42.6,29.91,SSE,162,3.0,11.0,45,0.00,,,-99.99,FreeWX 2.05,2013-04-05 23:14:00,
2013-04-05 19:24:00,64.2,43.0,29.91,SSE,156,2.0,9.6,46,0.00,,,-99.99,FreeWX 2.05,2013-04-05 23:24:00,
2013-04-05 19:34:00,63.9,43.7,29.91,SSW,196,1.0,7.8,48,0.00,,,-99.99,FreeWX 2.05,2013-04-05 23:34:00,
2013-04-05 19:44:00,63.7,44.6,29.91,South,181,1.0,10.1,50,0.00,,,-99.99,FreeWX 2.05,2013-04-05 23:44:00,
2013-04-05 19:54:00,63.3,45.3,29.91,SSW,196,2.0,8.3,52,0.00,,,-99.99,FreeWX 2.05,2013-04-05 23:54:00,
2013-04-05 20:04:00,63.5,46.6,29.94,South,186,2.0,8.3,54,0.00,,,-99.99,FreeWX 2.05,2013-04-06 00:04:00,
2013-04-05 20:14:00,63.3,47.3,29.94,South,171,2.0,9.6,56,0.00,,,-99.99,FreeWX 2.05,2013-04-06 00:14:00,
2013-04-05 20:25:00,63.3,47.3,29.94,South,174,2.0,9.6,56,0.00,,,-99.99,FreeWX 2.05,2013-04-06 00:25:00,
2013-04-05 20:35:00,63.3,47.3,29.94,South,185,1.0,7.8,56,0.00,,,-99.99,FreeWX 2.05,2013-04-06 00:35:00,
2013-04-05 20:45:00,63.3,47.3,29.94,SSW,199,1.0,6.9,56,0.00,,,-99.99,FreeWX 2.05,2013-04-06 00:45:00,
2013-04-05 20:55:00,63.5,47.1,29.94,South,171,2.0,8.3,55,0.00,,,-99.99,FreeWX 2.05,2013-04-06 00:55:00,
2013-04-05 21:05:00,63.5,47.1,29.97,SSW,195,1.0,6.7,55,0.00,,,-99.99,FreeWX 2.05,2013-04-06 01:05:00,
2013-04-05 21:15:00,63.7,47.7,29.97,South,183,1.0,4.9,56,0.00,,,-99.99,FreeWX 2.05,2013-04-06 01:15:00,
2013-04-05 21:25:00,63.9,48.4,29.97,South,175,1.0,6.3,57,0.00,,,-99.99,FreeWX 2.05,2013-04-06 01:25:00,
2013-04-05 21:35:00,63.7,48.6,29.97,South,180,1.0,5.4,58,0.00,,,-99.99,FreeWX 2.05,2013-04-06 01:35:00,
2013-04-05 21:45:00,63.9,49.6,29.97,South,185,1.0,6.7,60,0.00,,,-99.99,FreeWX 2.05,2013-04-06 01:45:00,
2013-04-05 21:55:00,63.9,50.2,29.97,South,178,2.0,7.4,61,0.00,,,-99.99,FreeWX 2.05,2013-04-06 01:55:00,
2013-04-05 22:05:00,63.7,50.4,29.97,SSW,197,1.0,7.4,62,0.00,,,-99.99,FreeWX 2.05,2013-04-06 02:05:00,
2013-04-05 22:15:00,63.5,50.2,30.00,SW,214,1.0,5.8,62,0.00,,,-99.99,FreeWX 2.05,2013-04-06 02:15:00,
2013-04-05 22:25:00,63.5,50.2,30.00,SSW,213,1.0,6.9,62,0.00,,,-99.99,FreeWX 2.05,2013-04-06 02:25:00,
2013-04-05 22:35:00,63.5,50.2,30.00,SW,224,1.0,5.8,62,0.00,,,-99.99,FreeWX 2.05,2013-04-06 02:35:00,
2013-04-05 22:45:00,63.5,49.3,30.00,SW,223,1.0,4.5,60,0.00,,,-99.99,FreeWX 2.05,2013-04-06 02:45:00,
2013-04-05 22:55:00,63.5,48.9,30.00,SW,229,2.0,7.8,59,0.00,,,-99.99,FreeWX 2.05,2013-04-06 02:55:00,
2013-04-05 23:05:00,63.5,48.4,30.00,SSW,213,1.0,6.3,58,0.00,,,-99.99,FreeWX 2.05,2013-04-06 03:05:00,
2013-04-05 23:15:00,63.3,48.2,30.00,SW,219,2.0,6.3,58,0.00,,,-99.99,FreeWX 2.05,2013-04-06 03:15:00,
2013-04-05 23:25:00,63.1,48.6,30.00,SW,214,1.0,6.3,59,0.00,,,-99.99,FreeWX 2.05,2013-04-06 03:25:00,
2013-04-05 23:35:00,63.1,48.6,30.00,SW,228,1.0,4.9,59,0.00,,,-99.99,FreeWX 2.05,2013-04-06 03:35:00,
2013-04-05 23:45:00,62.8,48.2,30.03,SW,235,2.0,5.8,59,0.00,,,-99.99,FreeWX 2.05,2013-04-06 03:45:00,
2013-04-05 23:55:00,62.6,48.0,30.03,SW,225,1.0,6.7,59,0.00,,,-99.99,FreeWX 2.05,2013-04-06 03:55:00,